STARLINK-4752

decayed
NORAD ID: 53821 Int'l Des: 2022-114 Owner: SPXS Country: US Constellation: starlink
LEOCIRCULAR

关于 STARLINK-4752

正在加载描述...

高度历史

Altitude vs Time

uPlot chart will show altitude changes over time

两行轨道根数

1 53821U 22114D 25229.92053698 .13013728 12130-4 29708-2 0 9995
2 53821 53.2071 43.3892 0008143 305.0497 208.2847 16.29201174162869
Epoch: Aug 17, 2025 • Age: 694 hours

当前状态

Position data unavailable
发射日期 Sep 19, 2022
运行时间 2.9 years
衰减日期 Aug 18, 2025
类型 internet

技术详情

分类 Payload
质量 305.00 kg
干质量 290.00 kg
总质量 305.00 kg
长度 0.20 m
直径 2.80 m
跨度 9.00 m
形状 Box + pan
制造商 SPXS
平台类型 Starlink
阶段状态 Unknown Transfer Status
所有者/国家 SPXS/US

大型星座

Loading constellations...